timestamp,waterbody_station,lease,latitude,longitude,deployment_start_date,deployment_end_date,sensor,depth,mooring,Temperature_degrees Celsius,Dissolved Oxygen_percent saturation,Dissolved Oxygen_mg/L
2017-08-04T00:00:00,Sober Island Pond-Sober Island,1323.0,44.845186,-62.4662922,2017-06-24,2017-12-12,HOBO-10817399,1.0,float,22.633,,
2017-08-04T00:15:00,Sober Island Pond-Sober Island,1323.0,44.845186,-62.4662922,2017-06-24,2017-12-12,HOBO-10817399,1.0,float,22.609,,
2017-08-04T00:30:00,Sober Island Pond-Sober Island,1323.0,44.845186,-62.4662922,2017-06-24,2017-12-12,HOBO-10817399,1.0,float,22.585,,
2017-08-04T00:45:00,Sober Island Pond-Sober Island,1323.0,44.845186,-62.4662922,2017-06-24,2017-12-12,HOBO-10817399,1.0,float,22.585,,
2017-08-04T01:00:00,Sober Island Pond-Sober Island,1323.0,44.845186,-62.4662922,2017-06-24,2017-12-12,HOBO-10817399,1.0,float,22.561,,
2017-08-04T01:15:00,Sober Island Pond-Sober Island,1323.0,44.845186,-62.4662922,2017-06-24,2017-12-12,HOBO-10817399,1.0,float,22.537,,
2017-08-04T01:30:00,Sober Island Pond-Sober Island,1323.0,44.845186,-62.4662922,2017-06-24,2017-12-12,HOBO-10817399,1.0,float,22.537,,
2017-08-04T01:45:00,Sober Island Pond-Sober Island,1323.0,44.845186,-62.4662922,2017-06-24,2017-12-12,HOBO-10817399,1.0,float,22.513,,
2017-08-04T02:00:00,Sober Island Pond-Sober Island,1323.0,44.845186,-62.4662922,2017-06-24,2017-12-12,HOBO-10817399,1.0,float,22.489,,
2017-08-04T02:15:00,Sober Island Pond-Sober Island,1323.0,44.845186,-62.4662922,2017-06-24,2017-12-12,HOBO-10817399,1.0,float,22.465,,
2017-08-04T02:30:00,Sober Island Pond-Sober Island,1323.0,44.845186,-62.4662922,2017-06-24,2017-12-12,HOBO-10817399,1.0,float,22.441,,
2017-08-04T02:45:00,Sober Island Pond-Sober Island,1323.0,44.845186,-62.4662922,2017-06-24,2017-12-12,HOBO-10817399,1.0,float,22.417,,
2017-08-04T03:00:00,Sober Island Pond-Sober Island,1323.0,44.845186,-62.4662922,2017-06-24,2017-12-12,HOBO-10817399,1.0,float,22.417,,
2017-08-04T03:15:00,Sober Island Pond-Sober Island,1323.0,44.845186,-62.4662922,2017-06-24,2017-12-12,HOBO-10817399,1.0,float,22.393,,
2017-08-04T03:30:00,Sober Island Pond-Sober Island,1323.0,44.845186,-62.4662922,2017-06-24,2017-12-12,HOBO-10817399,1.0,float,22.369,,
2017-08-04T03:45:00,Sober Island Pond-Sober Island,1323.0,44.845186,-62.4662922,2017-06-24,2017-12-12,HOBO-10817399,1.0,float,22.345,,
2017-08-04T04:00:00,Sober Island Pond-Sober Island,1323.0,44.845186,-62.4662922,2017-06-24,2017-12-12,HOBO-10817399,1.0,float,22.321,,
2017-08-04T04:15:00,Sober Island Pond-Sober Island,1323.0,44.845186,-62.4662922,2017-06-24,2017-12-12,HOBO-10817399,1.0,float,22.321,,
2017-08-04T04:30:00,Sober Island Pond-Sober Island,1323.0,44.845186,-62.4662922,2017-06-24,2017-12-12,HOBO-10817399,1.0,float,22.298,,
2017-08-04T04:45:00,Sober Island Pond-Sober Island,1323.0,44.845186,-62.4662922,2017-06-24,2017-12-12,HOBO-10817399,1.0,float,22.274,,
2017-08-04T05:00:00,Sober Island Pond-Sober Island,1323.0,44.845186,-62.4662922,2017-06-24,2017-12-12,HOBO-10817399,1.0,float,22.274,,
2017-08-04T05:15:00,Sober Island Pond-Sober Island,1323.0,44.845186,-62.4662922,2017-06-24,2017-12-12,HOBO-10817399,1.0,float,22.226,,
2017-08-04T05:30:00,Sober Island Pond-Sober Island,1323.0,44.845186,-62.4662922,2017-06-24,2017-12-12,HOBO-10817399,1.0,float,22.202,,
2017-08-04T05:45:00,Sober Island Pond-Sober Island,1323.0,44.845186,-62.4662922,2017-06-24,2017-12-12,HOBO-10817399,1.0,float,22.178,,
2017-08-04T06:00:00,Sober Island Pond-Sober Island,1323.0,44.845186,-62.4662922,2017-06-24,2017-12-12,HOBO-10817399,1.0,float,22.154,,
2017-08-04T06:15:00,Sober Island Pond-Sober Island,1323.0,44.845186,-62.4662922,2017-06-24,2017-12-12,HOBO-10817399,1.0,float,22.13,,
2017-08-04T06:30:00,Sober Island Pond-Sober Island,1323.0,44.845186,-62.4662922,2017-06-24,2017-12-12,HOBO-10817399,1.0,float,22.082,,
2017-08-04T06:45:00,Sober Island Pond-Sober Island,1323.0,44.845186,-62.4662922,2017-06-24,2017-12-12,HOBO-10817399,1.0,float,22.082,,
2017-08-04T07:00:00,Sober Island Pond-Sober Island,1323.0,44.845186,-62.4662922,2017-06-24,2017-12-12,HOBO-10817399,1.0,float,22.034,,
2017-08-04T07:15:00,Sober Island Pond-Sober Island,1323.0,44.845186,-62.4662922,2017-06-24,2017-12-12,HOBO-10817399,1.0,float,22.011,,
2017-08-04T07:30:00,Sober Island Pond-Sober Island,1323.0,44.845186,-62.4662922,2017-06-24,2017-12-12,HOBO-10817399,1.0,float,21.963,,
2017-08-04T07:45:00,Sober Island Pond-Sober Island,1323.0,44.845186,-62.4662922,2017-06-24,2017-12-12,HOBO-10817399,1.0,float,21.939,,
2017-08-04T08:00:00,Sober Island Pond-Sober Island,1323.0,44.845186,-62.4662922,2017-06-24,2017-12-12,HOBO-10817399,1.0,float,21.915,,
2017-08-04T08:15:00,Sober Island Pond-Sober Island,1323.0,44.845186,-62.4662922,2017-06-24,2017-12-12,HOBO-10817399,1.0,float,21.891,,
2017-08-04T08:30:00,Sober Island Pond-Sober Island,1323.0,44.845186,-62.4662922,2017-06-24,2017-12-12,HOBO-10817399,1.0,float,21.867,,
2017-08-04T08:45:00,Sober Island Pond-Sober Island,1323.0,44.845186,-62.4662922,2017-06-24,2017-12-12,HOBO-10817399,1.0,float,21.843,,
2017-08-04T09:00:00,Sober Island Pond-Sober Island,1323.0,44.845186,-62.4662922,2017-06-24,2017-12-12,HOBO-10817399,1.0,float,21.819,,
2017-08-04T09:15:00,Sober Island Pond-Sober Island,1323.0,44.845186,-62.4662922,2017-06-24,2017-12-12,HOBO-10817399,1.0,float,21.819,,
2017-08-04T09:30:00,Sober Island Pond-Sober Island,1323.0,44.845186,-62.4662922,2017-06-24,2017-12-12,HOBO-10817399,1.0,float,21.819,,
2017-08-04T09:45:00,Sober Island Pond-Sober Island,1323.0,44.845186,-62.4662922,2017-06-24,2017-12-12,HOBO-10817399,1.0,float,21.795,,
2017-08-04T10:00:00,Sober Island Pond-Sober Island,1323.0,44.845186,-62.4662922,2017-06-24,2017-12-12,HOBO-10817399,1.0,float,21.795,,
2017-08-04T10:15:00,Sober Island Pond-Sober Island,1323.0,44.845186,-62.4662922,2017-06-24,2017-12-12,HOBO-10817399,1.0,float,21.795,,
2017-08-04T10:30:00,Sober Island Pond-Sober Island,1323.0,44.845186,-62.4662922,2017-06-24,2017-12-12,HOBO-10817399,1.0,float,21.795,,
2017-08-04T10:45:00,Sober Island Pond-Sober Island,1323.0,44.845186,-62.4662922,2017-06-24,2017-12-12,HOBO-10817399,1.0,float,21.819,,
2017-08-04T11:00:00,Sober Island Pond-Sober Island,1323.0,44.845186,-62.4662922,2017-06-24,2017-12-12,HOBO-10817399,1.0,float,21.843,,
2017-08-04T11:15:00,Sober Island Pond-Sober Island,1323.0,44.845186,-62.4662922,2017-06-24,2017-12-12,HOBO-10817399,1.0,float,21.843,,
2017-08-04T11:30:00,Sober Island Pond-Sober Island,1323.0,44.845186,-62.4662922,2017-06-24,2017-12-12,HOBO-10817399,1.0,float,21.867,,
2017-08-04T11:45:00,Sober Island Pond-Sober Island,1323.0,44.845186,-62.4662922,2017-06-24,2017-12-12,HOBO-10817399,1.0,float,21.867,,
2017-08-04T12:00:00,Sober Island Pond-Sober Island,1323.0,44.845186,-62.4662922,2017-06-24,2017-12-12,HOBO-10817399,1.0,float,21.891,,
2017-08-04T12:15:00,Sober Island Pond-Sober Island,1323.0,44.845186,-62.4662922,2017-06-24,2017-12-12,HOBO-10817399,1.0,float,21.915,,
2017-08-04T12:30:00,Sober Island Pond-Sober Island,1323.0,44.845186,-62.4662922,2017-06-24,2017-12-12,HOBO-10817399,1.0,float,21.939,,
2017-08-04T12:45:00,Sober Island Pond-Sober Island,1323.0,44.845186,-62.4662922,2017-06-24,2017-12-12,HOBO-10817399,1.0,float,21.939,,
2017-08-04T13:00:00,Sober Island Pond-Sober Island,1323.0,44.845186,-62.4662922,2017-06-24,2017-12-12,HOBO-10817399,1.0,float,22.011,,
2017-08-04T13:15:00,Sober Island Pond-Sober Island,1323.0,44.845186,-62.4662922,2017-06-24,2017-12-12,HOBO-10817399,1.0,float,22.082,,
2017-08-04T13:30:00,Sober Island Pond-Sober Island,1323.0,44.845186,-62.4662922,2017-06-24,2017-12-12,HOBO-10817399,1.0,float,22.202,,
2017-08-04T13:45:00,Sober Island Pond-Sober Island,1323.0,44.845186,-62.4662922,2017-06-24,2017-12-12,HOBO-10817399,1.0,float,22.274,,
2017-08-04T14:00:00,Sober Island Pond-Sober Island,1323.0,44.845186,-62.4662922,2017-06-24,2017-12-12,HOBO-10817399,1.0,float,22.489,,
2017-08-04T14:15:00,Sober Island Pond-Sober Island,1323.0,44.845186,-62.4662922,2017-06-24,2017-12-12,HOBO-10817399,1.0,float,22.681,,
2017-08-04T14:30:00,Sober Island Pond-Sober Island,1323.0,44.845186,-62.4662922,2017-06-24,2017-12-12,HOBO-10817399,1.0,float,22.824,,
2017-08-04T14:45:00,Sober Island Pond-Sober Island,1323.0,44.845186,-62.4662922,2017-06-24,2017-12-12,HOBO-10817399,1.0,float,22.944,,
2017-08-04T15:00:00,Sober Island Pond-Sober Island,1323.0,44.845186,-62.4662922,2017-06-24,2017-12-12,HOBO-10817399,1.0,float,23.064,,
2017-08-04T15:15:00,Sober Island Pond-Sober Island,1323.0,44.845186,-62.4662922,2017-06-24,2017-12-12,HOBO-10817399,1.0,float,23.208,,
2017-08-04T15:30:00,Sober Island Pond-Sober Island,1323.0,44.845186,-62.4662922,2017-06-24,2017-12-12,HOBO-10817399,1.0,float,23.256,,
2017-08-04T15:45:00,Sober Island Pond-Sober Island,1323.0,44.845186,-62.4662922,2017-06-24,2017-12-12,HOBO-10817399,1.0,float,23.304,,
2017-08-04T16:00:00,Sober Island Pond-Sober Island,1323.0,44.845186,-62.4662922,2017-06-24,2017-12-12,HOBO-10817399,1.0,float,23.352,,
2017-08-04T16:15:00,Sober Island Pond-Sober Island,1323.0,44.845186,-62.4662922,2017-06-24,2017-12-12,HOBO-10817399,1.0,float,23.448,,
2017-08-04T16:30:00,Sober Island Pond-Sober Island,1323.0,44.845186,-62.4662922,2017-06-24,2017-12-12,HOBO-10817399,1.0,float,23.617,,
2017-08-04T16:45:00,Sober Island Pond-Sober Island,1323.0,44.845186,-62.4662922,2017-06-24,2017-12-12,HOBO-10817399,1.0,float,23.521,,
2017-08-04T17:00:00,Sober Island Pond-Sober Island,1323.0,44.845186,-62.4662922,2017-06-24,2017-12-12,HOBO-10817399,1.0,float,23.521,,
2017-08-04T17:15:00,Sober Island Pond-Sober Island,1323.0,44.845186,-62.4662922,2017-06-24,2017-12-12,HOBO-10817399,1.0,float,23.424,,
2017-08-04T17:30:00,Sober Island Pond-Sober Island,1323.0,44.845186,-62.4662922,2017-06-24,2017-12-12,HOBO-10817399,1.0,float,23.448,,
2017-08-04T17:45:00,Sober Island Pond-Sober Island,1323.0,44.845186,-62.4662922,2017-06-24,2017-12-12,HOBO-10817399,1.0,float,23.545,,
2017-08-04T18:00:00,Sober Island Pond-Sober Island,1323.0,44.845186,-62.4662922,2017-06-24,2017-12-12,HOBO-10817399,1.0,float,23.617,,
2017-08-04T18:15:00,Sober Island Pond-Sober Island,1323.0,44.845186,-62.4662922,2017-06-24,2017-12-12,HOBO-10817399,1.0,float,23.713,,
2017-08-04T18:30:00,Sober Island Pond-Sober Island,1323.0,44.845186,-62.4662922,2017-06-24,2017-12-12,HOBO-10817399,1.0,float,23.761,,
2017-08-04T18:45:00,Sober Island Pond-Sober Island,1323.0,44.845186,-62.4662922,2017-06-24,2017-12-12,HOBO-10817399,1.0,float,23.881,,
2017-08-04T19:00:00,Sober Island Pond-Sober Island,1323.0,44.845186,-62.4662922,2017-06-24,2017-12-12,HOBO-10817399,1.0,float,23.93,,
2017-08-04T19:15:00,Sober Island Pond-Sober Island,1323.0,44.845186,-62.4662922,2017-06-24,2017-12-12,HOBO-10817399,1.0,float,23.93,,
2017-08-04T19:30:00,Sober Island Pond-Sober Island,1323.0,44.845186,-62.4662922,2017-06-24,2017-12-12,HOBO-10817399,1.0,float,24.002,,
2017-08-04T19:45:00,Sober Island Pond-Sober Island,1323.0,44.845186,-62.4662922,2017-06-24,2017-12-12,HOBO-10817399,1.0,float,24.026,,
2017-08-04T20:00:00,Sober Island Pond-Sober Island,1323.0,44.845186,-62.4662922,2017-06-24,2017-12-12,HOBO-10817399,1.0,float,24.002,,
2017-08-04T20:15:00,Sober Island Pond-Sober Island,1323.0,44.845186,-62.4662922,2017-06-24,2017-12-12,HOBO-10817399,1.0,float,24.098,,
2017-08-04T20:30:00,Sober Island Pond-Sober Island,1323.0,44.845186,-62.4662922,2017-06-24,2017-12-12,HOBO-10817399,1.0,float,24.026,,
2017-08-04T20:45:00,Sober Island Pond-Sober Island,1323.0,44.845186,-62.4662922,2017-06-24,2017-12-12,HOBO-10817399,1.0,float,24.002,,
2017-08-04T21:00:00,Sober Island Pond-Sober Island,1323.0,44.845186,-62.4662922,2017-06-24,2017-12-12,HOBO-10817399,1.0,float,24.002,,
2017-08-04T21:15:00,Sober Island Pond-Sober Island,1323.0,44.845186,-62.4662922,2017-06-24,2017-12-12,HOBO-10817399,1.0,float,23.978,,
2017-08-04T21:30:00,Sober Island Pond-Sober Island,1323.0,44.845186,-62.4662922,2017-06-24,2017-12-12,HOBO-10817399,1.0,float,23.954,,
2017-08-04T21:45:00,Sober Island Pond-Sober Island,1323.0,44.845186,-62.4662922,2017-06-24,2017-12-12,HOBO-10817399,1.0,float,23.93,,
2017-08-04T22:00:00,Sober Island Pond-Sober Island,1323.0,44.845186,-62.4662922,2017-06-24,2017-12-12,HOBO-10817399,1.0,float,23.978,,
2017-08-04T22:15:00,Sober Island Pond-Sober Island,1323.0,44.845186,-62.4662922,2017-06-24,2017-12-12,HOBO-10817399,1.0,float,24.002,,
2017-08-04T22:30:00,Sober Island Pond-Sober Island,1323.0,44.845186,-62.4662922,2017-06-24,2017-12-12,HOBO-10817399,1.0,float,24.002,,
2017-08-04T22:45:00,Sober Island Pond-Sober Island,1323.0,44.845186,-62.4662922,2017-06-24,2017-12-12,HOBO-10817399,1.0,float,24.002,,
2017-08-04T23:00:00,Sober Island Pond-Sober Island,1323.0,44.845186,-62.4662922,2017-06-24,2017-12-12,HOBO-10817399,1.0,float,24.05,,
2017-08-04T23:15:00,Sober Island Pond-Sober Island,1323.0,44.845186,-62.4662922,2017-06-24,2017-12-12,HOBO-10817399,1.0,float,24.074,,
2017-08-04T23:30:00,Sober Island Pond-Sober Island,1323.0,44.845186,-62.4662922,2017-06-24,2017-12-12,HOBO-10817399,1.0,float,24.074,,
2017-08-04T23:45:00,Sober Island Pond-Sober Island,1323.0,44.845186,-62.4662922,2017-06-24,2017-12-12,HOBO-10817399,1.0,float,24.026,,
